Flag for Germany Weather past 2 weeks in Lüdenscheid, North Rhine-Westphalia, Germany

Now
66 °F

Passing clouds.


Feels Like: 66 °F
Forecast: 61 / 71 °F
Wind: 3 mph from Southeast

Location: Koeln / Bonn

Current Time: Aug 2, 2014 at 5:01:52 AM

Latest Report: Aug 2, 2014 at 4:00 AM


Visibility: 28 mi

Pressure: 29.76 "Hg

Humidity: 70%

Dew point: 56 °F

Location of LüdenscheidLocation

Historic Weather in Lüdenscheid — Graph

°F

Lüdenscheid temperature yesterday

Maximum temperature yesterday: 82 °F (at 2:00 PM)
Minimum temperature yesterday: 57 °F (at 6:00 AM)
Average temperature yesterday: 71 °F

Past Weeks' High & Low Weather Summary

 TemperatureHumidityPressure
High92 °F (Jul 19, 4:00 PM)100% (Jul 22, 6:00 AM)30.07 "Hg (Jul 22, 6:00 AM)
Low55 °F (Jul 25, 4:00 AM)28% (Jul 19, 3:00 PM)29.75 "Hg (Jul 29, 8:00 PM)
Average70 °F74%29.90 "Hg
* Reported Jul 18 4:00 AM — Aug 2 4:00 AM, Lüdenscheid, Weather by CustomWeather, © 2014

Note: Actual official high and low records may vary slightly from our data, if they occured in-between our weather recording intervals... More about our weather records

Advertising

Lüdenscheid weather history for previous 24 hours

 ConditionsComfort  
Time TempWeatherWind HumidityBarometerVisibility
4:00 AM
Aug 2
66 °FPassing clouds.3 mph70%29.76 "Hg28 mi
3:00 AM67 °FPassing clouds.3 mph71%29.77 "Hg28 mi
2:00 AM69 °FPassing clouds.3 mph68%29.78 "Hg31 mi
1:00 AM71 °FPassing clouds.3 mph67%29.78 "Hg31 mi
12:00 AM72 °FPassing clouds.3 mph63%29.78 "Hg31 mi
11:00 PM
Aug 1
73 °FPassing clouds.3 mph62%29.77 "Hg31 mi
10:00 PM75 °FPassing clouds.3 mph62%29.77 "Hg31 mi
9:00 PM76 °FPartly sunny.2 mph61%29.75 "Hg31 mi
8:00 PM76 °FPartly sunny.2 mph62%29.76 "Hg31 mi
7:00 PM81 °FScattered clouds.3 mph49%29.77 "Hg31 mi
6:00 PM81 °FPartly sunny.5 mph46%29.78 "Hg31 mi
5:00 PM82 °FPartly sunny.3 mph42%29.78 "Hg28 mi
4:00 PM80 °FScattered clouds.2 mph45%29.80 "Hg28 mi
3:00 PM81 °FPartly sunny.3 mph47%29.81 "Hg28 mi
2:00 PM82 °FScattered clouds.3 mph43%29.82 "Hg28 mi
1:00 PM79 °FScattered clouds.2 mph45%29.83 "Hg28 mi
12:00 PM77 °FPartly sunny.1 mph48%29.84 "Hg25 mi
11:00 AM75 °FScattered clouds.2 mph59%29.85 "Hg25 mi
10:00 AM71 °FScattered clouds.2 mph64%29.87 "Hg25 mi
9:00 AM68 °FPartly sunny.2 mph72%29.87 "Hg25 mi
8:00 AM64 °FOvercast.1 mph77%29.87 "Hg25 mi
7:00 AM59 °FOvercast.1 mph88%29.88 "Hg22 mi
6:00 AM57 °FScattered clouds.1 mph88%29.88 "Hg19 mi
5:00 AM60 °FPassing clouds.1 mph82%29.89 "Hg31 mi
Weather by CustomWeather, © 2014

See weather overviewHow to use our weather pages